Vorticity
7 6 5 6 9 7 5 4 6 6 7 10 12 9 7 11 5 3 5 5 9 10 9 6 8 5 2 4 11 -2 21 11 5 7 4 8 9 10 3 15 16 9 33 31 6
8 7 5 6 9 6 5 4 8 8 5 7 15 10 8 6 10 4 3 3 6 6 6 3 2 3 6 1 -3 3 -4 2 1 -0 5 7 4 3 15 10 8 11 2 5 8
7 7 6 6 7 5 3 9 10 10 8 5 14 16 9 7 6 10 5 4 4 3 4 3 1 4 2 5 -1 13 9 13 4 6 6 5 5 9 5 5 7 7 6 6 9
9 7 7 6 8 5 6 11 11 10 10 10 13 19 13 10 8 9 9 6 3 3 2 1 1 3 6 2 6 5 8 4 11 7 13 12 12 6 9 8 8 9 8 7 5
9 10 9 6 9 4 8 9 8 9 9 10 13 22 17 14 13 11 11 10 5 3 1 4 3 9 8 10 10 5 14 10 9 2 6 9 15 4 12 10 11 12 9 8 10
7 8 11 8 10 4 7 6 8 9 9 8 6 10 13 11 18 23 24 23 20 13 17 15 14 3 25 11 3 4 14 6 9 4 3 4 9 12 9 7 7 12 13 12 6
6 7 11 11 10 5 7 9 8 8 10 11 11 9 7 9 9 8 11 10 9 3 8 12 17 19 13 7 7 11 -1 -2 1 8 8 3 15 7 7 10 5 12 20 15 17
6 6 11 13 10 6 8 8 9 8 7 7 5 5 8 7 7 6 6 8 6 6 5 8 6 14 13 7 9 6 4 -2 5 14 1 9 25 5 9 8 5 6 7 16 14
8 5 11 14 10 7 9 8 6 4 5 5 6 7 5 5 7 8 8 10 11 9 9 9 9 8 1 -2 2 4 1 6 -0 12 6 4 13 12 9 11 7 3 3 7 10
9 6 14 14 9 8 7 7 5 7 8 7 7 7 7 4 4 4 6 5 11 11 8 9 13 1 -2 -8 -2 -6 8 -3 1 -1 8 8 7 10 4 7 15 2 5 6 8
8 8 17 13 7 9 8 6 7 5 5 8 3 10 7 5 5 6 7 7 5 10 6 10 10 4 -7 -6 8 7 9 5 -5 2 8 5 3 7 -3 0 4 17 4 2 6
10 8 18 11 6 9 8 7 7 7 7 6 6 4 1 5 3 3 3 6 7 7 7 8 1 -1 1 -6 7 2 16 21 16 10 9 -4 5 -7 2 2 11 18 12 4 1
12 9 17 10 6 10 7 8 7 6 6 4 4 2 2 2 4 4 6 5 7 6 10 5 6 10 7 10 6 9 1 7 11 14 6 18 6 -8 2 -3 -1 -6 -4 15 3
12 10 17 8 12 7 7 6 5 3 4 3 5 5 7 6 9 9 7 12 13 9 6 8 8 37 5 8 9 5 7 22 10 14 1 7 14 1 -2 -3 5 3 -2 4 19
14 10 16 10 10 6 6 4 4 5 6 3 5 8 8 9 9 11 18 16 12 15 18 11 17 10 13 7 6 2 22 6 13 11 0 -3 7 6 14 -4 3 4 3 5 12
21 11 14 12 6 5 4 3 6 4 2 11 4 9 10 9 14 18 12 19 18 27 23 17 14 11 11 11 9 9 4 3 16 8 18 4 1 5 7 1 7 6 -6 11 14
24 14 12 11 5 3 4 4 6 5 4 6 2 23 12 10 16 18 14 24 15 3 0 -2 2 11 9 9 13 4 -2 13 -2 31 -13 1 9 17 4 12 -1 -3 -2 27 -7
14 19 12 8 5 3 2 5 6 7 18 4 -5 13 26 36 21 13 0 8 3 2 0 -3 15 13 8 5 8 14 -20 6 8 -11 -5 16 11 14 2 -0 -10 18 3 24 12
10 23 11 9 5 3 2 9 3 7 -2 -3 -1 5 4 7 -1 4 8 7 9 -3 4 1 12 2 9 15 18 18 10 -1 12 -7 6 17 8 17 -2 -7 11 -5 12 -2 56
8 23 10 9 7 3 5 4 3 4 33 -16 -3 1 -0 6 -8 10 6 12 8 -7 5 1 1 9 1 6 14 5 14 5 2 -2 -9 -7 2 13 19 6 11 -5 2 -12 5
18 23 10 8 7 5 9 12 8 10 5 -1 0 2 8 -4 -3 3 -5 6 -4 0 -8 22 1 4 17 -0 3 5 10 1 3 18 -11 -1 6 -6 -1 -5 4 -2 3 20 1
28 18 11 8 8 6 7 4 -1 -4 -1 3 -10 4 -4 20 32 1 2 6 5 6 27 21 8 -5 -3 -3 -3 -3 5 5 11 10 13 -4 -2 -3 -3 -2 -1 -0 3 11 8
20 16 13 8 9 9 7 1 -1 -1 5 1 -9 2 0 7 17 26 -5 2 3 9 8 17 12 16 2 -1 -5 2 3 2 2 3 2 7 7 -3 2 5 -1 -5 -1 7 19
14 12 12 9 7 12 7 -2 3 4 1 -3 12 -2 -5 -6 1 -9 -6 -2 -13 1 16 9 21 11 18 12 9 6 9 3 3 1 1 -5 8 12 7 8 9 9 10 7 4
11 14 13 8 8 6 7 6 1 4 5 4 6 24 7 14 -8 -9 3 3 7 9 21 17 13 12 15 17 16 17 6 13 0 -1 5 4 -1 1 -0 1 10 6 6 3 4
10 11 19 8 6 8 1 7 1 3 1 10 5 8 6 11 16 -3 -3 9 6 9 19 5 6 6 12 10 10 15 16 17 17 1 1 2 3 10 5 0 -1 12 8 5 5
9 10 19 12 10 2 1 4 3 5 8 8 15 16 24 19 15 23 18 10 10 9 12 13 6 7 11 8 10 11 7 6 10 15 17 17 15 12 14 18 8 8 9 8 7
Height
5888 5889 5889 5890 5890 5891 5891 5891 5892 5891 5892 5892 5893 5894 5896 5899 5901 5904 5906 5910 5912 5915 5916 5917 5919 5920 5918 5918 5919 5918 5920 5920 5920 5919 5917 5919 5917 5915 5915 5916 5912 5909 5905 5911 5916
5886 5887 5888 5889 5889 5890 5891 5891 5891 5891 5891 5891 5892 5893 5895 5897 5900 5902 5906 5909 5911 5913 5915 5916 5916 5917 5918 5919 5918 5920 5921 5921 5921 5920 5918 5919 5918 5918 5916 5915 5914 5911 5909 5909 5912
5884 5886 5887 5888 5889 5890 5890 5890 5890 5890 5890 5891 5891 5892 5894 5896 5899 5902 5904 5907 5909 5912 5913 5913 5914 5916 5918 5919 5920 5921 5921 5921 5919 5920 5920 5919 5917 5916 5916 5914 5916 5915 5912 5910 5912
5883 5884 5885 5886 5888 5889 5889 5889 5889 5889 5890 5891 5890 5891 5893 5896 5900 5901 5903 5906 5908 5911 5911 5912 5915 5915 5916 5918 5919 5920 5920 5921 5921 5920 5920 5919 5919 5916 5916 5914 5915 5917 5914 5912 5913
5881 5882 5883 5885 5887 5888 5889 5889 5889 5890 5890 5891 5891 5891 5893 5896 5898 5901 5903 5905 5907 5910 5910 5913 5914 5916 5917 5917 5918 5920 5921 5921 5921 5921 5920 5919 5920 5917 5916 5914 5914 5915 5913 5913 5912
5879 5880 5881 5883 5885 5887 5888 5889 5890 5890 5891 5892 5893 5893 5895 5897 5898 5900 5903 5906 5908 5909 5911 5915 5916 5915 5917 5917 5918 5920 5921 5920 5920 5920 5919 5919 5920 5918 5915 5913 5913 5913 5913 5912 5909
5877 5878 5879 5881 5883 5885 5887 5889 5890 5891 5892 5893 5894 5896 5897 5899 5900 5901 5905 5907 5909 5910 5913 5915 5916 5917 5918 5919 5919 5917 5921 5920 5921 5922 5922 5920 5921 5919 5917 5915 5914 5914 5915 5913 5911
5875 5876 5878 5879 5882 5884 5886 5889 5891 5892 5894 5895 5896 5898 5899 5901 5903 5904 5906 5908 5910 5911 5913 5914 5916 5919 5920 5920 5920 5919 5920 5921 5922 5923 5923 5923 5922 5921 5919 5917 5916 5915 5914 5912 5911
5872 5874 5875 5877 5880 5883 5886 5888 5891 5893 5895 5896 5898 5899 5901 5902 5904 5906 5907 5909 5910 5911 5912 5914 5916 5917 5919 5919 5920 5921 5921 5921 5922 5924 5924 5924 5923 5920 5921 5920 5918 5916 5914 5914 5914
5870 5871 5873 5875 5879 5882 5885 5888 5891 5894 5895 5897 5899 5902 5903 5904 5905 5906 5908 5908 5911 5911 5913 5914 5915 5917 5919 5919 5919 5919 5922 5921 5922 5925 5924 5924 5925 5922 5920 5921 5921 5919 5916 5916 5915
5867 5868 5870 5873 5877 5881 5885 5889 5894 5896 5898 5900 5900 5901 5903 5904 5905 5907 5908 5909 5911 5912 5913 5913 5915 5916 5918 5918 5918 5917 5921 5922 5923 5923 5923 5924 5925 5924 5922 5921 5921 5921 5919 5918 5917
5863 5866 5868 5872 5876 5880 5884 5887 5891 5894 5898 5900 5902 5902 5903 5905 5906 5906 5907 5909 5910 5912 5912 5914 5913 5914 5915 5916 5916 5919 5920 5921 5922 5922 5922 5922 5923 5922 5922 5921 5921 5922 5922 5921 5919
5860 5863 5866 5870 5875 5879 5882 5886 5890 5892 5896 5899 5901 5902 5904 5905 5905 5906 5907 5907 5908 5910 5912 5912 5914 5914 5915 5915 5917 5918 5919 5919 5921 5922 5922 5921 5921 5921 5920 5919 5920 5922 5922 5922 5921
5855 5860 5863 5868 5874 5877 5882 5886 5889 5892 5896 5899 5900 5902 5902 5903 5904 5903 5903 5905 5906 5907 5908 5911 5912 5912 5913 5915 5917 5918 5918 5920 5919 5919 5920 5919 5920 5920 5919 5918 5920 5920 5919 5918 5919
5851 5856 5861 5866 5871 5875 5880 5885 5889 5892 5896 5898 5898 5899 5900 5902 5902 5901 5901 5901 5902 5904 5909 5910 5910 5911 5912 5914 5916 5919 5919 5917 5919 5920 5921 5920 5921 5920 5917 5918 5920 5917 5914 5917 5915
5848 5853 5859 5864 5870 5875 5880 5885 5889 5894 5895 5897 5897 5898 5898 5899 5899 5899 5899 5900 5902 5905 5905 5907 5908 5909 5912 5914 5916 5917 5917 5918 5920 5921 5922 5921 5920 5919 5916 5919 5917 5913 5914 5914 5913
5845 5850 5857 5862 5868 5874 5880 5884 5889 5889 5891 5893 5894 5895 5896 5897 5896 5898 5898 5901 5903 5904 5904 5905 5906 5910 5912 5914 5916 5916 5917 5918 5920 5918 5919 5919 5918 5917 5919 5917 5910 5909 5911 5912 5914
5843 5848 5854 5860 5866 5872 5879 5884 5887 5887 5888 5891 5892 5895 5894 5896 5896 5898 5899 5902 5902 5902 5902 5904 5909 5909 5910 5912 5915 5916 5916 5916 5917 5917 5917 5915 5917 5915 5915 5912 5910 5909 5911 5910 5908
5840 5845 5852 5858 5864 5871 5878 5882 5884 5885 5887 5888 5892 5896 5896 5896 5895 5898 5900 5902 5901 5902 5903 5905 5907 5906 5909 5911 5914 5914 5915 5914 5916 5916 5914 5914 5915 5914 5912 5911 5908 5907 5912 5908 5904
5838 5843 5849 5856 5863 5870 5878 5879 5883 5882 5887 5885 5887 5892 5895 5895 5894 5897 5898 5897 5898 5900 5903 5905 5907 5905 5906 5910 5912 5912 5912 5913 5913 5914 5912 5911 5911 5910 5910 5909 5906 5906 5907 5909 5907
5836 5840 5847 5854 5862 5870 5875 5877 5879 5881 5885 5885 5887 5889 5889 5892 5895 5897 5896 5897 5897 5900 5902 5902 5904 5906 5908 5906 5905 5905 5906 5907 5909 5911 5908 5907 5906 5905 5903 5903 5904 5904 5906 5904 5906
5834 5838 5845 5853 5861 5868 5872 5873 5875 5878 5883 5884 5887 5884 5889 5888 5890 5893 5893 5894 5894 5895 5897 5898 5900 5902 5905 5903 5903 5903 5902 5903 5904 5906 5904 5903 5903 5899 5896 5896 5897 5900 5901 5905 5902
5833 5838 5845 5852 5860 5865 5867 5868 5871 5874 5881 5884 5883 5882 5883 5887 5886 5887 5890 5889 5890 5892 5895 5897 5898 5899 5902 5901 5900 5900 5899 5899 5899 5900 5899 5898 5896 5894 5893 5894 5894 5894 5895 5896 5894
5833 5838 5845 5851 5857 5861 5864 5866 5868 5872 5874 5880 5881 5880 5883 5884 5882 5884 5885 5886 5887 5889 5892 5891 5891 5892 5894 5893 5893 5894 5896 5895 5895 5894 5893 5892 5890 5890 5890 5890 5889 5889 5889 5890 5888
5836 5841 5845 5850 5855 5857 5860 5862 5864 5868 5872 5873 5875 5877 5878 5880 5880 5879 5880 5881 5884 5885 5887 5885 5885 5888 5890 5889 5888 5889 5891 5890 5888 5887 5887 5887 5885 5883 5883 5883 5883 5882 5881 5878 5876
5837 5841 5845 5847 5849 5852 5853 5859 5861 5862 5865 5867 5869 5872 5874 5877 5879 5878 5876 5876 5877 5879 5881 5881 5880 5882 5882 5881 5881 5884 5882 5881 5880 5880 5880 5880 5878 5876 5874 5874 5875 5875 5872 5869 5867
5836 5839 5843 5845 5848 5850 5851 5854 5856 5858 5859 5860 5866 5868 5869 5872 5874 5875 5873 5872 5871 5872 5874 5875 5875 5875 5877 5875 5876 5876 5873 5871 5873 5873 5873 5872 5871 5869 5869 5867 5865 5862 5860 5858 5855